Location: Haliburton Scout Reserve
(45.0900°N, 78.3200°W)
Time: 13:05:23
(UTC-04:00)

RS-15 - Visible Passes

Search period start: 25 July 2024 00:00
Search period end: 04 August 2024 00:00
Orbit: 1897 x 2148 km, 64.8° (Epoch: 25 July)

Date Brightness Start Highest point End Pass type
(mag) Time Alt. Az. Time Alt. Az. Time Alt. Az.
25 Jul 8.7 04:13:31 10° S 04:24:34 48° ESE 04:35:09 10° NE visible
26 Jul 9.0 03:38:32 10° S 03:48:52 37° ESE 03:58:47 10° NE visible
27 Jul 9.3 03:03:58 10° SSE 03:13:16 28° ESE 03:22:13 10° NE visible
27 Jul 8.1 05:12:32 10° SW 05:24:22 86° NW 05:35:43 10° NE visible
28 Jul 9.5 02:30:03 10° SE 02:37:47 21° E 02:45:16 10° ENE visible
28 Jul 8.2 04:36:33 10° SSW 04:48:20 78° ESE 04:59:36 10° NE visible
29 Jul 9.7 01:57:11 10° ESE 02:02:24 14° E 02:07:30 10° ENE visible
29 Jul 8.3 04:02:07 14° SSW 04:12:25 63° ESE 04:23:28 10° NE visible
30 Jul 8.6 03:27:40 17° S 03:36:35 50° ESE 03:47:14 10° NE visible
31 Jul 8.8 02:53:12 19° SSE 03:00:52 39° ESE 03:10:54 10° NE visible
31 Jul 8.2 05:00:58 10° SW 05:12:36 70° NW 05:23:51 10° NE visible
01 Aug 9.1 02:18:40 18° SSE 02:25:15 29° ESE 02:34:22 10° NE visible
01 Aug 8.1 04:26:27 17° SW 04:36:26 84° NW 04:47:46 10° NE visible
02 Aug 9.4 01:44:08 15° SE 01:49:45 22° E 01:57:29 10° NE visible
02 Aug 8.1 03:51:53 23° SSW 04:00:23 81° ESE 04:11:40 10° NE visible
03 Aug 9.6 01:09:32 11° ESE 01:14:21 15° E 01:19:53 10° ENE visible
03 Aug 8.2 03:17:18 27° S 03:24:27 65° ESE 03:35:32 10° NE visible
03 Aug 8.6 05:26:17 10° WSW 05:37:25 48° NW 05:48:08 10° NE visible
